This is the latest recevied weather packets stored in our database for station/object UHMM. If no packets are shown the sender has not sent any weather packets the latest 10 day(s).
| Time | Temp. | Humidity | Pressure | Rain* | Wind** | Luminosity | Snow |
|---|---|---|---|---|---|---|---|
| 1777550408 | -2.22° C | 74% | 1008 hPa | - | - | - | - |
| 1777548609 | -2.22° C | 74% | 1008 hPa | - | - | - | - |
| 1777546810 | -1.11° C | 68% | 1008 hPa | - | - | - | - |
| 1777545008 | -1.11° C | 68% | 1008 hPa | - | - | - | - |
| 1777543210 | 0° C | 69% | 1008 hPa | - | - | - | - |
| 1777541409 | 0° C | 69% | 1008 hPa | - | - | - | - |
| 1777539609 | 0.56° C | 64% | 1008 hPa | - | - | - | - |
| 1777536009 | 1.67° C | 59% | 1007 hPa | - | - | - | - |
| 1777534208 | 1.67° C | 59% | 1007 hPa | - | - | - | - |
| 1777532409 | 1.67° C | 59% | 1007 hPa | - | - | - | - |
| 1777530610 | 2.78° C | 55% | 1007 hPa | - | - | - | - |
| 1777527010 | 2.78° C | 51% | 1007 hPa | - | - | - | - |
| 1777525208 | 2.78° C | 51% | 1007 hPa | - | - | - | - |
| 1777523408 | 2.78° C | 47% | 1007 hPa | - | - | - | - |
| 1777521608 | 1.67° C | 51% | 1008 hPa | - | - | - | - |
| 1777519808 | 1.67° C | 51% | 1008 hPa | - | - | - | - |
| 1777518008 | 1.67° C | 51% | 1008 hPa | - | - | - | - |
| 1777516208 | 1.67° C | 51% | 1008 hPa | - | - | - | - |
| 1777514410 | 1.67° C | 51% | 1008 hPa | - | - | - | - |
| 1777512612 | 1.67° C | 47% | 1008 hPa | - | - | - | - |
| 1777510808 | 1.67° C | 47% | 1008 hPa | - | - | - | - |
| 1777509008 | 0.56° C | 50% | 1008 hPa | - | - | - | - |
| 1777505410 | 0° C | 54% | 1009 hPa | - | - | - | - |
| 1777503608 | 0° C | 54% | 1009 hPa | - | - | - | - |
| 1777501809 | -1.11° C | 63% | 1009 hPa | - | - | - | - |
* Rain since midnight (hover to see other rain measurements)
** Current wind speed in m/s (hover to see current wind gust speed)